[[{"header":{"parameterUnit":"m.s-1","parameterCategory":1,"la1":30.2991,"la2":30.254,"lo1":-89.0895,"lo2":-89.0444,"dy":0.0017,"dx":0.0017,"nx":28,"ny":28,"refTime":"2023-10-01T03:00:00:Z","depth":0,"parameterNumber":2,"parameterNumberName":"U-component_of_WINDS"},"data":[0,0,0,0,0,0,0,0,0,0,0,0,0,0,0,0,0,0,0,0,0,0,0,0,0,0,0,0,0,0,0,0,0,0,0,0,0,0,0,0,0,0,0,0,0,0,0,0,0,0,0,0,0,0,0,0,0,0,-4.4985,-4.4986,0,-4.5092,-4.5093,-4.5094,-4.4944,-4.4939,-4.4933,-4.4928,-4.5042,-4.505,-4.5058,0,0,0,0,0,0,0,0,0,0,0,0,0,-4.4656,-4.4663,-4.4985,-4.4987,-4.4988,-4.5092,-4.5093,-4.5095,-4.4945,-4.4939,-4.4932,-4.4926,-4.5039,-4.5049,-4.5059,0,0,0,0,0,0,0,0,0,0,0,0,0,-4.4785,-4.4665,-4.4985,-4.4926,-4.4921,-4.5091,-4.5093,-4.5095,-4.4946,-4.4938,-4.493,-4.4923,-4.5036,-4.5048,-4.506,-4.5294,0,0,-4.5097,-4.5102,0,0,0,0,0,0,0,0,-4.4778,-4.4797,-4.4933,-4.493,-4.4926,-4.4996,-4.5019,-4.5162,-4.4948,-4.4937,-4.4928,-4.4919,-4.5034,-4.5045,-4.5083,-4.53,-4.5305,-4.5098,-4.5105,-4.511,-4.5113,0,0,0,0,0,0,0,-4.4769,-4.4792,-4.5027,-4.4935,-4.4931,-4.4895,-4.4904,-4.5045,-4.5029,-4.4937,-4.4927,-4.4941,-4.503,-4.5072,-4.5085,-4.5306,-4.5097,-4.5108,-4.5115,-4.512,-4.5722,-4.573,0,0,0,0,0,0,-4.4767,-4.4785,-4.5024,-4.5031,-4.483,-4.4907,-4.4918,-4.4982,-4.5027,-4.5026,-4.4948,-4.4934,-4.5055,-4.5071,-4.5088,-4.5367,-4.511,-4.5121,-4.5128,-4.5713,-4.5724,-4.5733,0,0,0,0,0,0,-4.476,-4.4789,-4.502,-4.4905,-4.4932,-4.4922,-4.4995,-4.4988,-4.503,-4.5035,-4.5032,-4.4993,-4.505,-4.5071,-4.5244,-4.5369,-4.5127,-4.5138,-4.5703,-4.5717,-4.5729,-4.5926,0,0,0,0,0,0,-4.4751,-4.4788,-4.4876,-4.4908,-4.4938,-4.5174,-4.5002,-4.4996,-4.505,-4.5033,-4.5077,-4.5077,-4.5045,-4.5227,-4.5256,-4.5381,-4.5147,-4.5692,-4.5709,-4.5725,-4.5909,-4.5945,-4.5975,0,0,0,0,0,-4.474,-4.4928,-4.4881,-4.4911,-4.5048,-4.5181,-4.5198,-4.5157,-4.5061,-4.515,-4.5154,-4.5075,-4.535,-4.5246,-4.5278,-4.5408,-4.5684,-4.5704,-4.5723,-4.5894,-4.5938,-4.5975,0,0,0,0,0,0,-4.4913,-4.4931,-4.4879,-4.5083,-4.5132,-4.5155,-4.5267,-4.5205,-4.5282,-4.5263,-4.5209,-4.5221,-4.5406,-4.5424,-4.5308,-4.5638,-4.5501,-4.5528,-4.562,-4.5662,-4.5694,-4.5688,-4.5157,0,0,0,0,0,-4.4974,-4.5079,-4.509,-4.5269,-4.5295,-4.5278,-4.5334,-4.5297,-4.5346,-4.5366,-4.5382,-4.5433,-4.5531,-4.5597,-4.5687,-4.591,-4.5918,-4.6015,-4.6048,-4.6075,-4.61,-4.6221,-4.6265,-4.5798,-4.5798,-4.5798,0,0,-4.5103,-4.5126,-4.5196,-4.5304,-4.5337,-4.5449,-4.5296,-4.542,-4.5503,-4.5385,-4.555,-4.5564,-4.5617,-4.5817,-4.5905,-4.5837,-4.6231,-4.6101,-4.6123,-4.6133,-4.6246,-4.629,-4.633,-4.5812,-4.5809,-4.5807,0,0,-4.5395,-4.5422,-4.5574,-4.5611,-4.5662,-4.5649,-4.5686,-4.5719,-4.5723,-4.5887,-4.5801,-4.5899,-4.6069,-4.6111,-4.6155,-4.6462,-4.6394,-4.6493,-4.6669,-4.6787,-4.6824,-4.6856,-4.6968,-4.7009,-4.6517,-4.6518,-4.6518,0,-4.5549,-4.5712,-4.5661,-4.5792,-4.5843,-4.574,-4.5895,-4.5933,-4.6012,-4.6051,-4.5972,-4.6183,-4.6212,-4.642,-4.6495,-4.6533,-4.6575,-4.6489,-4.6822,-4.6854,-4.6884,-4.699,-4.7032,-4.653,-4.6528,-4.6527,-4.6526,0,-4.59,-4.6015,-4.6132,-4.621,-4.6274,-4.6416,-4.6388,-4.6459,-4.6417,-4.6413,-4.6582,-4.6612,-4.6708,-4.6754,-4.6715,-4.6958,-4.6914,-4.683,-4.6692,-4.6941,-4.704,-4.708,-4.6547,-4.6543,-4.6539,-4.6536,0,0,-4.6305,-4.6353,-4.6397,-4.6431,-4.6481,-4.6569,-4.6707,-4.6799,-4.6862,-4.692,-4.7036,-4.7181,-4.7104,-4.7153,-4.7118,-4.7221,-4.7466,-4.7124,-4.7125,-4.7189,-4.7738,-4.7803,-4.7851,-4.7419,-4.7427,-4.7433,-4.7734,0,-4.6598,-4.6836,-4.6794,-4.7026,-4.7132,-4.7035,-4.7156,-4.72,-4.72,-4.7291,-4.729,-4.7395,-4.7283,-4.7313,-4.7411,-4.7415,-4.7576,-4.7393,-4.7529,-4.7535,-4.7521,-4.7902,-4.797,-4.8253,-4.7772,-4.7779,-4.7784,0,-4.6972,-4.7043,-4.7285,-4.7318,-4.7361,-4.747,-4.7551,-4.7639,-4.7687,-4.768,-4.7736,-4.7681,-4.782,-4.7678,-4.787,-4.7747,-4.78,-4.7811,-4.7821,-4.7834,-4.7676,-4.7928,-4.8342,-4.8386,-4.7844,-4.7839,-4.7834,0,-4.7247,-4.7402,-4.7567,-4.76,-4.7642,-4.7721,-4.7743,-4.7783,-4.7841,-4.7912,-4.7949,-4.8037,-4.8085,-4.8154,-4.8125,-4.8024,-4.8325,-4.8179,-4.8324,-4.8325,-4.8394,-4.839,-4.8825,-4.8424,-4.8424,-4.8423,-4.8422,0,-4.7579,-4.7732,-4.7691,-4.7794,-4.7962,-4.7913,-4.8081,-4.8091,-4.8128,-4.8231,-4.8152,-4.8252,-4.8206,-4.8302,-4.828,-4.8444,-4.8466,-4.8465,-4.8458,-4.8474,-4.8475,-4.851,-4.8491,-4.8434,-4.8432,-4.8429,-4.8427,0,-4.7915,-4.7894,-4.8068,-4.8093,-4.8103,-4.8226,-4.8248,-4.8345,-4.8337,-4.8469,-4.8497,-4.8487,-4.8596,-4.8573,-4.8694,-4.8679,-4.8885,-4.8852,-4.8869,-4.8862,-4.9009,-4.8997,-4.9484,-4.9546,-4.9103,-4.9107,-4.9111,0,-4.813,-4.8245,-4.8283,-4.8346,-4.8373,-4.8475,-4.8534,-4.849,-4.8555,-4.8618,-4.8708,-4.881,-4.8889,-4.9069,-4.9073,-4.9165,-4.9135,-4.93,-4.9149,-4.9161,-4.9141,-4.9135,-4.9147,-4.9331,-4.9336,-4.934,-4.9343,0,-4.8515,-4.8499,-4.8586,-4.867,-4.8742,-4.8806,-4.8863,-4.8919,-4.888,-4.8957,-4.9067,-4.9129,-4.9251,-4.9354,-4.9439,-4.9463,-4.9399,-4.939,-4.9429,-4.9448,-4.9453,-4.9455,-4.8954,-4.938,-4.9376,-4.9374,-4.9372,-4.937,-4.8799,-4.8897,-4.8939,-4.9039,-4.9076,-4.9131,-4.9223,-4.9227,-4.9318,-4.9413,-4.9382,-4.9508,-4.9554,-4.9662,-4.9695,-4.9795,-4.9733,-4.9789,-4.9803,-4.9818,-4.9837,-4.9436,-4.981,-4.9808,-4.9807,-4.9807,-4.9806,0,-4.9181,-4.9203,-4.9295,-4.9377,-4.9456,-4.9385,-4.9445,-4.9516,-4.9628,-4.9676,-4.9755,-4.9883,-4.9982,-4.9994,-5.0088,-5.0166,-5.0139,-5.0193,-5.0188,-5.0195,-4.9886,-4.9844,-5.0213,-5.0213,-5.0213,-5.0213,-5.0213,-5.0213,-4.939,-4.9553,-4.9542,-4.9723,-4.9744,-4.9866,-4.9906,-4.9957,-4.9995,-5.0141,-5.0223,-5.0229,-5.0263,-5.0359,-5.0448,-5.0449,-5.0489,-5.0555,-5.0545,-5.0257,-5.0216,-5.0178,-5.0138,-5.0563,-5.0563,-5.0845,-5.0848,-5.085]},{"header":{"parameterUnit":"m.s-1","parameterCategory":1,"la1":30.2991,"la2":30.254,"lo1":-89.0895,"lo2":-89.0444,"dy":0.0017,"dx":0.0017,"nx":28,"ny":28,"refTime":"2023-10-01T03:00:00:Z","depth":0,"parameterNumber":3,"parameterNumberName":"V-component_of_WINDS"},"data":[0,0,0,0,0,0,0,0,0,0,0,0,0,0,0,0,0,0,0,0,0,0,0,0,0,0,0,0,0,0,0,0,0,0,0,0,0,0,0,0,0,0,0,0,0,0,0,0,0,0,0,0,0,0,0,0,0,0,-2.2935,-2.2936,0,-2.2955,-2.2955,-2.2955,-2.2946,-2.2946,-2.2945,-2.2945,-2.2963,-2.2964,-2.2965,0,0,0,0,0,0,0,0,0,0,0,0,0,-2.2889,-2.289,-2.2935,-2.2936,-2.2936,-2.2955,-2.2955,-2.2955,-2.2946,-2.2946,-2.2945,-2.2944,-2.2963,-2.2964,-2.2965,0,0,0,0,0,0,0,0,0,0,0,0,0,-2.2909,-2.289,-2.2935,-2.2934,-2.2934,-2.2955,-2.2955,-2.2955,-2.2946,-2.2946,-2.2945,-2.2944,-2.2963,-2.2964,-2.2966,-2.2989,0,0,-2.297,-2.2971,0,0,0,0,0,0,0,0,-2.2907,-2.291,-2.2934,-2.2934,-2.2934,-2.2947,-2.2945,-2.2967,-2.2947,-2.2942,-2.2945,-2.2944,-2.2959,-2.296,-2.2966,-2.299,-2.2991,-2.297,-2.2971,-2.2972,-2.2972,0,0,0,0,0,0,0,-2.2906,-2.2909,-2.2943,-2.2934,-2.2934,-2.2931,-2.2933,-2.2949,-2.2954,-2.2942,-2.2941,-2.2944,-2.2959,-2.2964,-2.2966,-2.2991,-2.297,-2.2971,-2.2972,-2.2973,-2.3033,-2.3034,0,0,0,0,0,0,-2.2905,-2.2908,-2.2942,-2.2944,-2.2919,-2.2933,-2.2935,-2.2944,-2.2954,-2.2955,-2.2944,-2.2943,-2.2962,-2.2964,-2.2967,-2.2993,-2.2972,-2.2973,-2.2974,-2.3033,-2.3034,-2.3034,0,0,0,0,0,0,-2.2904,-2.2908,-2.2942,-2.2926,-2.293,-2.2934,-2.2944,-2.2945,-2.295,-2.2956,-2.2956,-2.2949,-2.2962,-2.2965,-2.2983,-2.2994,-2.2974,-2.2975,-2.3032,-2.3033,-2.3034,-2.3048,0,0,0,0,0,0,-2.2903,-2.2908,-2.2917,-2.2926,-2.2931,-2.2959,-2.2945,-2.2945,-2.2953,-2.2952,-2.296,-2.2961,-2.2961,-2.2981,-2.2985,-2.2995,-2.2976,-2.3031,-2.3032,-2.3034,-2.3046,-2.3049,-2.3052,0,0,0,0,0,-2.2901,-2.2921,-2.2918,-2.2922,-2.2943,-2.2959,-2.2962,-2.2962,-2.2954,-2.2963,-2.2966,-2.2961,-2.2992,-2.2983,-2.2987,-2.2998,-2.303,-2.3032,-2.3034,-2.3045,-2.3049,-2.3051,0,0,0,0,0,0,-2.2913,-2.2922,-2.2919,-2.2942,-2.295,-2.2958,-2.2969,-2.2966,-2.2976,-2.2974,-2.2973,-2.2975,-2.2994,-2.2998,-2.2988,-2.3021,-2.301,-2.3012,-2.3017,-2.3021,-2.3023,-2.3021,-2.2977,0,0,0,0,0,-2.2919,-2.2932,-2.2938,-2.2958,-2.2962,-2.2965,-2.2972,-2.2971,-2.2979,-2.2983,-2.2987,-2.2995,-2.3006,-2.3014,-2.3025,-2.3047,-2.3048,-2.3057,-2.3059,-2.3061,-2.3063,-2.3074,-2.3077,-2.304,-2.304,-2.304,0,0,-2.293,-2.2936,-2.2945,-2.2961,-2.2967,-2.2979,-2.2968,-2.2982,-2.2991,-2.2985,-2.3002,-2.3006,-2.3014,-2.3034,-2.3043,-2.3038,-2.3074,-2.3064,-2.3065,-2.3066,-2.3076,-2.3079,-2.3082,-2.3041,-2.3041,-2.3041,0,0,-2.2956,-2.2963,-2.298,-2.2986,-2.2995,-2.2996,-2.3,-2.3008,-2.301,-2.3028,-2.3023,-2.3033,-2.3053,-2.3059,-2.3064,-2.3091,-2.3087,-2.3095,-2.3108,-2.3119,-2.3121,-2.3124,-2.3132,-2.3135,-2.3097,-2.3097,-2.3097,0,-2.2969,-2.2989,-2.2988,-2.3003,-2.3009,-2.3004,-2.3019,-2.3025,-2.3037,-2.3041,-2.3036,-2.3059,-2.3065,-2.3085,-2.3092,-2.3097,-2.31,-2.3094,-2.3121,-2.3124,-2.3126,-2.3134,-2.3137,-2.3098,-2.3098,-2.3098,-2.3098,0,-2.3003,-2.3016,-2.3028,-2.304,-2.3048,-2.3063,-2.3064,-2.3072,-2.307,-2.3072,-2.3089,-2.3095,-2.3106,-2.3111,-2.311,-2.3131,-2.3127,-2.3121,-2.311,-2.313,-2.3138,-2.3141,-2.3099,-2.3099,-2.3099,-2.3098,0,0,-2.3038,-2.3048,-2.3053,-2.3057,-2.3066,-2.3076,-2.309,-2.3101,-2.3107,-2.3115,-2.3126,-2.3143,-2.3137,-2.3143,-2.3142,-2.3151,-2.317,-2.3144,-2.3144,-2.3147,-2.3192,-2.3196,-2.3199,-2.3167,-2.3168,-2.3168,-2.3191,0,-2.3064,-2.3089,-2.3088,-2.3111,-2.3122,-2.3117,-2.3129,-2.3135,-2.3137,-2.3146,-2.3148,-2.3159,-2.3152,-2.3155,-2.3164,-2.3166,-2.3179,-2.3165,-2.3176,-2.3177,-2.3173,-2.3203,-2.3207,-2.3228,-2.3194,-2.3194,-2.3195,0,-2.3098,-2.3107,-2.3131,-2.3136,-2.3141,-2.3152,-2.3161,-2.3171,-2.3177,-2.3178,-2.3184,-2.3181,-2.3194,-2.3184,-2.3201,-2.3191,-2.3196,-2.3198,-2.3198,-2.3199,-2.3186,-2.3203,-2.3235,-2.3238,-2.32,-2.3199,-2.3199,0,-2.312,-2.3138,-2.3153,-2.3158,-2.3165,-2.3173,-2.3176,-2.3182,-2.3188,-2.3196,-2.3199,-2.3209,-2.3214,-2.3221,-2.322,-2.3212,-2.3237,-2.3227,-2.3237,-2.3237,-2.3242,-2.3241,-2.3274,-2.3247,-2.3247,-2.3247,-2.3247,0,-2.3148,-2.3163,-2.3163,-2.3173,-2.3188,-2.3187,-2.3202,-2.3205,-2.321,-2.3219,-2.3215,-2.3224,-2.3223,-2.3232,-2.3231,-2.3245,-2.3247,-2.3247,-2.3247,-2.3247,-2.3247,-2.325,-2.3248,-2.3247,-2.3247,-2.3247,-2.3247,0,-2.3175,-2.3176,-2.3192,-2.3198,-2.3199,-2.321,-2.3214,-2.3223,-2.3224,-2.3236,-2.3239,-2.3241,-2.325,-2.3251,-2.3262,-2.3262,-2.3278,-2.3277,-2.3276,-2.3275,-2.3285,-2.3283,-2.3319,-2.3323,-2.3295,-2.3295,-2.3295,0,-2.3192,-2.3203,-2.3209,-2.3215,-2.3219,-2.3229,-2.3234,-2.3233,-2.324,-2.3247,-2.3254,-2.3264,-2.3271,-2.3287,-2.3289,-2.3297,-2.3295,-2.3307,-2.3297,-2.3296,-2.3294,-2.3293,-2.3293,-2.3309,-2.3309,-2.331,-2.331,0,-2.3223,-2.3223,-2.3231,-2.324,-2.3247,-2.3253,-2.326,-2.3265,-2.3264,-2.3271,-2.3281,-2.3287,-2.3298,-2.3307,-2.3314,-2.3317,-2.3313,-2.3313,-2.3316,-2.3316,-2.3314,-2.3314,-2.328,-2.3312,-2.3312,-2.3312,-2.3312,-2.3312,-2.3245,-2.3253,-2.3258,-2.3268,-2.3272,-2.3278,-2.3285,-2.3287,-2.3295,-2.3304,-2.3303,-2.3314,-2.3319,-2.3329,-2.3332,-2.334,-2.3336,-2.334,-2.3341,-2.3341,-2.3342,-2.3314,-2.3342,-2.3341,-2.3341,-2.3341,-2.3341,0,-2.3274,-2.3277,-2.3285,-2.3294,-2.33,-2.3296,-2.3302,-2.3308,-2.3318,-2.3323,-2.333,-2.334,-2.3348,-2.3351,-2.3359,-2.3364,-2.3362,-2.3366,-2.3365,-2.3366,-2.3346,-2.3342,-2.3367,-2.3367,-2.3367,-2.3367,-2.3367,-2.3367,-2.329,-2.3304,-2.3304,-2.3319,-2.3321,-2.3332,-2.3335,-2.334,-2.3344,-2.3355,-2.3362,-2.3364,-2.3367,-2.3375,-2.3382,-2.3382,-2.3385,-2.3389,-2.3389,-2.337,-2.3367,-2.3365,-2.3361,-2.339,-2.339,-2.3408,-2.3408,-2.3408]}]]